Terug naar catalogus

CZ-3A R/B

ActiefHEO
NORAD 37385·ROCKET BODY·🇨🇳 China

Gelanceerd Apr 9, 2011 vanaf Xichang Satellite Launch Center

Loading…

Volgende Passages (komende 24 uur)

TLE

VersSource: Space-Track

Epoch: Sep 14, 2026, 12:12 UTC

1 37385U 11013B   26257.50895809 -.00000070  00000-0  00000-0 0  9996
2 37385  55.5119 211.6579 6462486 174.8660 198.3331  2.63327551147344

Volg CZ-3A R/B in realtime met AllMySat

Download on the App Store